Phuket, Thailand

3:52 PM +07 on September 25, 2017 (GMT +0700)
Phuket International

Weather History for VTSP - March, 2013

Change the Weather History Date:

Saturday, March 23, 2013

  Actual Average Record
Temperature  
Mean Temperature 87 °F -  
Max Temperature 95 °F 91 °F 102 °F (1998)
Min Temperature 79 °F 77 °F 71 °F (2014)
Cooling Degree Days 22    
Growing Degree Days 37 (Base 50)    
Moisture  
Dew Point 73 °F    
Average Humidity 66    
Maximum Humidity 100    
Minimum Humidity 39    
Precipitation  
Precipitation 0.00 in 0.18 in - ()
Sea Level Pressure  
Sea Level Pressure 29.79 in    
Wind  
Wind Speed 6 mph ()    
Max Wind Speed 15 mph    
Max Gust Speed -    
Visibility 6.0 miles    
Events      
Averages and records for this station are not official NWS values.
T = Trace of Precipitation, MM = Missing Value Source: Averaged Metar Reports

Daily Weather History Graph

Daily Weather History Graph

Search for Another Location

Airport or City:

Trip Planner

Search our weather history database for the weather conditions in past years. The results will help you decide how hot, cold, wet, or windy it might be!

Date:

Astronomy

Mar. 23, 2013 Rise Set
Actual Time 6:29 AM +07 6:37 PM +07
Civil Twilight 6:08 AM +07 6:58 PM +07
Nautical Twilight 5:44 AM +07 7:22 PM +07
Astronomical Twilight 5:20 AM +07 7:46 PM +07
Moon 3:12 PM +07 (3/23) 3:03 AM +07 (3/23)
Length of Visible Light 12h 49m
Length of Day
12h 07m
Waxing Gibbous, 81% of the Moon is Illuminated
Mar 23
Waxing Gibbous
Mar 27
Full
Apr 3
Last Quarter
Apr 10
New
Apr 18
First Quarter

Hourly Weather History & Observations

Time (+07) Temp. Heat Index Dew Point Humidity Pressure Visibility Wind Dir Wind Speed Gust Speed Precip Events Conditions
12:00 AM 80.6 °F 86.2 °F 75.2 °F 84% 29.83 in 6.2 mi Calm Calm - N/A   Scattered Clouds
12:30 AM 82.4 °F 89.5 °F 75.2 °F 79% 29.83 in 5.0 mi ENE 3.5 mph - N/A   Mostly Cloudy
1:00 AM 83 °F - 78 °F 81% 29.77 in 6 mi NE 3.5 mph - -   Scattered Clouds
1:00 AM 82.4 °F 89.5 °F 75.2 °F 79% 29.80 in 5.6 mi NE 4.6 mph - N/A   Mostly Cloudy
1:30 AM 82.4 °F 89.5 °F 75.2 °F 79% 29.80 in 5.6 mi ENE 2.3 mph - N/A   Mostly Cloudy
2:30 AM 82.4 °F 88.2 °F 73.4 °F 74% 29.77 in 5.6 mi ENE 4.6 mph - N/A   Scattered Clouds
3:00 AM 82.4 °F 88.2 °F 73.4 °F 74% 29.77 in 5.6 mi East 3.5 mph - N/A   Scattered Clouds
3:30 AM 82.4 °F 88.2 °F 73.4 °F 74% 29.77 in 5.6 mi ENE 5.8 mph - N/A   Scattered Clouds
4:00 AM 82.4 °F 89.5 °F 75.2 °F 79% 29.77 in 5.6 mi NE 4.6 mph - N/A   Scattered Clouds
4:30 AM 82.4 °F 89.5 °F 75.2 °F 79% 29.77 in 5.6 mi ENE 3.5 mph - N/A   Scattered Clouds
5:00 AM 82.4 °F 89.5 °F 75.2 °F 79% 29.77 in 5.6 mi ENE 4.6 mph - N/A   Scattered Clouds
5:30 AM 82.4 °F 89.5 °F 75.2 °F 79% 29.77 in 5.6 mi ENE 3.5 mph - N/A   Scattered Clouds
6:00 AM 75.2 °F - 75.2 °F 100% 29.77 in 5.6 mi ENE 3.5 mph - N/A   Mostly Cloudy
6:30 AM 80.6 °F 85.4 °F 73.4 °F 79% 29.80 in 5.6 mi NE 3.5 mph - N/A   Mostly Cloudy
7:00 AM 82 °F - 76 °F 77% 29.75 in 6 mi ENE 3.5 mph - -   Scattered Clouds
7:00 AM 82.4 °F 89.5 °F 75.2 °F 79% 29.80 in 6.2 mi ENE 4.6 mph - N/A   Mostly Cloudy
7:30 AM 84.2 °F 90.9 °F 73.4 °F 70% 29.80 in 6.2 mi NE 5.8 mph - N/A   Mostly Cloudy
8:00 AM 84.2 °F 90.9 °F 73.4 °F 70% 29.80 in 6.2 mi ENE 5.8 mph - N/A   Mostly Cloudy
8:30 AM 84.2 °F 90.9 °F 73.4 °F 70% 29.83 in 6.2 mi ENE 5.8 mph - N/A   Mostly Cloudy
9:00 AM 86.0 °F 93.4 °F 73.4 °F 66% 29.83 in 6.2 mi ENE 6.9 mph - N/A   Mostly Cloudy
9:30 AM 87.8 °F 95.6 °F 73.4 °F 62% 29.83 in 6.2 mi East 5.8 mph - N/A   Mostly Cloudy
10:00 AM 89.6 °F 98.2 °F 73.4 °F 59% 29.83 in 6.2 mi East 13.8 mph - N/A   Mostly Cloudy
10:30 AM 89.6 °F 96.2 °F 71.6 °F 55% 29.83 in 6.2 mi East 12.7 mph - N/A   Mostly Cloudy
11:00 AM 91.4 °F 96.8 °F 69.8 °F 49% 29.83 in 6.2 mi East 15.0 mph - N/A   Mostly Cloudy
11:30 AM 91.4 °F 96.8 °F 69.8 °F 49% 29.83 in 6.2 mi East 13.8 mph - N/A   Mostly Cloudy
12:00 PM 93.2 °F 97.7 °F 68.0 °F 44% 29.80 in 6.2 mi East 15.0 mph - N/A   Mostly Cloudy
12:30 PM 93.2 °F 98.8 °F 69.8 °F 46% 29.80 in 6.2 mi ESE 11.5 mph - N/A   Mostly Cloudy
1:00 PM 94 °F - 73 °F 41% 29.79 in 6 mi East 10.4 mph - -   Scattered Clouds
1:00 PM 95.0 °F 98.5 °F 66.2 °F 39% 29.77 in 6.2 mi East 11.5 mph - N/A   Mostly Cloudy
1:30 PM 95.0 °F 99.5 °F 68.0 °F 41% 29.77 in 6.2 mi East 10.4 mph - N/A   Mostly Cloudy
2:00 PM 95.0 °F 99.5 °F 68.0 °F 41% 29.74 in 6.2 mi East 9.2 mph - N/A   Mostly Cloudy
2:30 PM 96.8 °F 101.8 °F 68.0 °F 39% 29.74 in 6.2 mi ENE 15.0 mph - N/A   Mostly Cloudy
3:00 PM 95.0 °F 107.4 °F 75.2 °F 53% 29.74 in 6.2 mi SSW 5.8 mph - N/A   Mostly Cloudy
3:30 PM 91.4 °F 102.5 °F 75.2 °F 59% 29.71 in 6.2 mi WSW 13.8 mph - N/A   Mostly Cloudy
4:00 PM 93.2 °F 100.5 °F 71.6 °F 49% 29.74 in 6.2 mi WSW 13.8 mph - N/A   Mostly Cloudy
4:30 PM 91.4 °F 102.5 °F 75.2 °F 59% 29.74 in 6.2 mi West 13.8 mph - N/A   Mostly Cloudy
5:00 PM 89.6 °F 98.2 °F 73.4 °F 59% 29.74 in 6.2 mi West 13.8 mph - N/A   Mostly Cloudy
5:30 PM 89.6 °F 98.2 °F 73.4 °F 59% 29.74 in 6.2 mi West 13.8 mph - N/A   Mostly Cloudy
6:00 PM 87.8 °F 95.6 °F 73.4 °F 62% 29.74 in 6.2 mi West 10.4 mph - N/A   Mostly Cloudy
6:30 PM 87.8 °F 95.6 °F 73.4 °F 62% 29.74 in 6.2 mi West 8.1 mph - N/A   Scattered Clouds
7:00 PM 89 °F - 76 °F 57% 29.71 in 6 mi West 8.1 mph - -   Scattered Clouds
7:00 PM 87.8 °F 95.6 °F 73.4 °F 62% 29.77 in 6.2 mi West 11.5 mph - N/A   Scattered Clouds
7:30 PM 84.2 °F 90.9 °F 73.4 °F 70% 29.77 in 6.2 mi WSW 5.8 mph - N/A   Scattered Clouds
8:00 PM 84.2 °F 92.3 °F 75.2 °F 74% 29.80 in 6.2 mi West 8.1 mph - N/A   Scattered Clouds
8:30 PM 84.2 °F 92.3 °F 75.2 °F 74% 29.83 in 6.2 mi Calm Calm - N/A   Scattered Clouds
9:00 PM 84.2 °F 92.3 °F 75.2 °F 74% 29.83 in 6.2 mi South 3.5 mph - N/A   Mostly Cloudy
9:30 PM 82.4 °F 89.5 °F 75.2 °F 79% 29.86 in 6.2 mi Calm Calm - N/A   Mostly Cloudy
10:00 PM 82.4 °F 89.5 °F 75.2 °F 79% 29.86 in 6.2 mi Calm Calm - N/A   Mostly Cloudy
10:30 PM 82.4 °F 89.5 °F 75.2 °F 79% 29.89 in 6.2 mi Variable 2.3 mph - N/A   Mostly Cloudy
11:00 PM 84.2 °F 90.9 °F 73.4 °F 70% 29.89 in 6.2 mi NW 3.5 mph - N/A   Mostly Cloudy
11:30 PM 82.4 °F 88.2 °F 73.4 °F 74% 29.89 in 6.2 mi NW 5.8 mph - N/A   Mostly Cloudy